Location: Bartlow
(52.0833°N, 0.3167°E)
Time: 20:05:14
(UTC+00:00)

Cosmos 1092 Rocket - Pass Details

Date: 26 September 2023
Orbit: 953 x 995 km, 82.9° (Epoch: 09 December)

Event Time Altitude Azimuth Distance (km) Brightness Sun altitude
Exits shadow 03:04:08 55° 258° (WSW) 1,190 4.1 -25.0°
Maximum altitude 03:04:52 58° 285° (WNW) 1,154 4.1 -24.9°
Drops below altitude 10° 03:11:09 10° 5° (N) 2,775 6.8 -24.1°
Sets 03:13:45 0° 9° (N) 3,727 7.6 -23.8°
